STARLINK-4275, 53008

Orbit data source: Space-Track

STARLINK-4275, 53008 is a payload satellite owned by SpaceX/Seattle (US) in LEO that was launched on Thu, 07 Jul 2022 UTC via an FALCON 9 launch vehicle from the Air Force Eastern Test Range (AFETR). Payload-class satellites include a variety of spacecraft equipped with specific instruments for various scientific and technological missions. These include communications satellites like Starlink; space stations such as the ISS; scientific satellites like the Hubble; Earth observation satellites from companies like Planet Labs, Umbra, and HawkEye 360; GPS; miniature CubeSats for education and research; and military/defense satellites.

Loading next visibility...
Identifier
53008, 2022-076Y
Orbit
LEO
Country
Flag of USUS
Related business
Manufacturer
SpaceX/Seattle
Mission
Operational Commercial Communications
Bus & Motor
STARLINK, Unknown motor
Mass
297 kg wet, ~275 kg dry
Launch date (UTC)
2022-07-07 (3 years ago)
Launch vehicle
FALCON 9
Launch site
Air Force Eastern Test Range (AFETR)
Object type
Payload
Rocket body
Debris
Shape & HBR
Box + 1 Pan, 10.1 m
Radar Cross Section
13.562 m², Large (>1 m²)

Expand to show TLE details & history
Last TLE update: 12 hours ago

TLE from 12 hours ago
0 STARLINK-4275
1 53008U 22076Y   25341.25136759  .00000871  00000-0  72795-4 0  9996
2 53008  53.2151 149.0818 0001368  85.5146 274.6002 15.08838248188895
Epoch: 2025-12-07T06:01Z
TLE epoch observation values (Epoch: 2025-12-07T06:01:58.159Z)
Latitude
-0.00007°
Longitude
-17.67801°
Altitude
540.57 km
Speed
7.593 km/s
True Right ascension
09h 56m 19s
True Declination
0° 00' 00"
Sunlit
Object was in daylight at epoch
Visualization orbit readout
Latitude
Unknown
Longitude
Unknown
Altitude
Unknown
Speed
Unknown
Apparent Right ascension
Unknown
Apparent Declination
Unknown
Sunlit
N/A
Visualization observer readout
Local Sidereal Time
16:37:44
Azimuth
Unknown
Elevation
Unknown
Doppler factor
Unknown
Orbital elements
Apogee altitude
540.94 km
Perigee altitude
539.048 km
Semi-major axis
6,918.131 km
Eccentricity
0.00014
Inclination
53.2151°
RAAN
149.0818°
Arg. of periapsis
85.5146°
True anomaly
274.58457°
Mean anomaly
274.6002°
Eccentric anomaly
274.59239°
Mean motion
3.7719 °/min
Orbital period
95.44 mins
BSTAR
0.000072795
Loading maneuver chart data...
Computing Atmospheric mass density...
Loading historical data...
Loading historical data...
Loading historical data...
Loading historical data...
Loading historical data...
Loading historical data...
Loading historical data...

Documentation

Showing up to 5 results
|